Date,TemperatureHighF,TemperatureAvgF,TemperatureLowF,DewpointHighF,DewpointAvgF,DewpointLowF,HumidityHigh,HumidityAvg,HumidityLow,PressureMaxIn,PressureMinIn,WindSpeedMaxMPH,WindSpeedAvgMPH,GustSpeedMaxMPH,PrecipitationSumIn
2013-3-1,33,30,27,27,24,21,83,77,68,30.45,30.34,10,4,18,0.00
2013-3-2,38,29,22,25,22,18,89,74,51,30.53,30.38,7,2,14,0.00
2013-3-3,57,43,27,35,28,22,80,58,39,30.38,29.88,12,4,19,0.00
2013-3-4,65,55,43,48,41,32,77,59,47,29.99,29.70,13,6,24,0.00
2013-3-5,45,38,31,35,27,20,90,66,45,30.49,30.01,14,9,29,0.12
2013-3-6,48,34,24,27,22,19,82,64,42,30.58,30.45,8,2,14,0.00
2013-3-7,61,49,36,33,30,26,68,49,30,30.41,30.26,11,3,18,0.00
2013-3-8,61,53,44,41,37,32,66,54,45,30.34,30.14,11,5,19,0.00
2013-3-9,65,58,52,57,49,37,89,71,51,30.14,29.76,14,7,24,0.63
2013-3-10,56,45,30,53,41,26,92,89,84,30.11,29.74,13,5,23,0.42
2013-3-11,46,35,28,29,25,21,85,69,38,30.20,30.08,10,3,19,0.00
2013-3-12,55,43,29,34,28,23,84,59,36,30.49,30.19,9,2,21,0.00
2013-3-13,53,39,26,25,22,20,82,53,28,30.63,30.48,3,0,10,0.00
2013-3-14,72,53,39,46,35,22,68,50,36,30.50,30.22,14,4,20,0.00
2013-3-15,78,63,48,52,47,42,81,57,33,30.22,29.86,15,7,25,0.00
2013-3-16,72,61,47,53,47,39,78,60,48,29.95,29.83,12,5,20,0.00
2013-3-17,47,44,41,44,41,38,91,89,73,29.98,29.80,11,3,24,0.15
2013-3-18,55,46,37,43,38,30,91,76,40,30.19,29.81,10,3,19,0.01
2013-3-19,57,44,33,31,26,17,78,53,24,30.41,30.15,9,2,19,0.00
2013-3-20,47,38,30,32,24,17,88,61,32,30.52,30.26,10,2,18,0.00
2013-3-21,42,36,34,33,25,12,89,66,31,30.26,29.94,11,4,22,0.25
2013-3-22,43,38,34,39,35,31,90,88,84,30.09,29.97,6,1,17,0.09
2013-3-23,42,39,37,40,37,34,91,90,88,30.07,29.85,6,2,13,0.03
2013-3-24,41,33,28,38,29,22,91,86,76,30.30,29.81,15,7,29,0.08
2013-3-25,36,30,24,26,22,19,82,75,62,30.53,30.29,11,5,20,0.00
2013-3-26,45,33,24,26,23,20,88,68,43,30.62,30.47,6,1,12,0.00
2013-3-27,58,46,31,33,28,22,71,51,32,30.47,30.26,11,3,16,0.00
2013-3-28,69,56,45,52,42,31,73,58,50,30.33,30.21,14,5,21,0.00
2013-3-29,67,59,53,58,53,48,88,80,68,30.30,30.19,7,2,12,0.15
2013-3-30,69,60,52,59,54,49,89,83,68,30.23,29.98,16,3,35,0.58
2013-3-31,68,58,48,54,47,40,89,72,37,30.10,29.97,15,1,30,0.14